Regional Weather Roundup
Issued by NWS

Home | Current Version | Previous Version | Graphics & Text | Print | Product List | Glossary On
Versions: 1 2 3 4 5 6 7 8 9 10 11 12 13 14 15 16 17 18 19 20 21 22 23 24 25 26 27 28 29 30 31 32 33 34 35 36 37 38 39 40 41 42 43 44 45 46 47 48 49 50
000
ASUS43 KOAX 260610
RWRNE

WEATHER ROUNDUP FOR NEBRASKA
NATIONAL WEATHER SERVICE OMAHA NE
100 AM CDT SUN MAR 26 2017

NOTES: SATELLITE DATA IS BEING USED TO AUGMENT CLOUD COVER ABOVE
       12000 FEET.
       "FAIR" INDICATES FEW OR NO CLOUDS BELOW 12,000 FEET WITH NO
       SIGNIFICANT WEATHER AND/OR OBSTRUCTIONS TO VISIBILITY.

  * THESE STATIONS DO NOT REPORT WEATHER SUCH AS RAIN...SNOW OR FOG.

NEZ001>004-019>022-054>056-260700-
NEBRASKA PANHANDLE

CITY           SKY/WX    TMP DP  RH WIND       PRES   REMARKS
SCOTTSBLUFF    CLOUDY    48  33  56 E9        29.81F
6HR MIN TEMP:  48; 6HR MAX TEMP:  65;

ALLIANCE       CLOUDY    41  30  65 SE9       29.82S
6HR MIN TEMP:  41; 6HR MAX TEMP:  60;

CHADRON        CLOUDY    53  31  42 S10       29.79S
6HR MIN TEMP:  53; 6HR MAX TEMP:  65;

KIMBALL        CLOUDY    44  34  67 S5        29.84S
SIDNEY         CLOUDY    42  30  62 S8        29.85S
6HR MIN TEMP:  35; 6HR MAX TEMP:  57;

$$

NEZ057>060-069>072-079>082-260700-
SOUTHWEST NEBRASKA

CITY           SKY/WX    TMP DP  RH WIND       PRES   REMARKS
NORTH PLATTE   CLOUDY    42  39  89 SE7       29.89S
6HR MIN TEMP:  41; 6HR MAX TEMP:  60;

IMPERIAL       CLOUDY    40  38  93 SE12      29.87R WCI  33
6HR MIN TEMP:  40; 6HR MAX TEMP:  58;

LEXINGTON      CLOUDY    41  39  93 E6        29.90S FOG
MCCOOK         CLOUDY    41  41 100 E7        29.89S FOG
6HR MIN TEMP:  39; 6HR MAX TEMP:  57;

OGALLALA       CLOUDY    44  41  90 SE5       29.86S
$$

NEZ005>010-023>029-035>040-094-260700-
NORTH CENTRAL NEBRASKA

CITY           SKY/WX    TMP DP  RH WIND       PRES   REMARKS
VALENTINE      CLOUDY    40  38  93 S13       29.89R WCI  32
6HR MIN TEMP:  39; 6HR MAX TEMP:  58;

AINSWORTH      CLOUDY    38  38 100 S8        29.89F FOG     WCI  32
BROKEN BOW     CLOUDY    40  39  97 SE8       29.89F FOG     WCI  34
6HR MIN TEMP:  40; 6HR MAX TEMP:  47;

O`NEILL        FOG       39  39  99 SE5       29.91F VSB 1/2
ORD            CLOUDY    39  37  92 E5        29.90F FOG
6HR MIN TEMP:  39; 6HR MAX TEMP:  42;

THEDFORD       CLOUDY    40  40  97 SE7       29.89S FOG
$$

NEZ041-046>049-061>064-073>077-083>087-260700-
SOUTH CENTRAL NEBRASKA

CITY           SKY/WX    TMP DP  RH WIND       PRES   REMARKS
GRAND ISLAND   FOG       38  38 100 NE5       29.92F VSB 3/4 WCI  34
6HR MIN TEMP:  38; 6HR MAX TEMP:  40;

AURORA         CLOUDY    38  38 100 NE5       29.91F FOG     WCI  35
HASTINGS       CLOUDY    39  38  96 E6        29.92F FOG     WCI  35
6HR MIN TEMP:  38; 6HR MAX TEMP:  41;

HEBRON         CLOUDY    39  38  97 NE3       29.91F FOG
HOLDREGE       CLOUDY    39  38  96 E7        29.90S FOG     WCI  34
KEARNEY *      CLOUDY    39  36  87 NE8       29.91F WCI  34
YORK           CLOUDY    37  37 100 NE6       29.92F FOG     WCI  33
$$

NEZ011>018-030>034-042>045-260700-
NORTHEAST NEBRASKA

CITY           SKY/WX    TMP DP  RH WIND       PRES   REMARKS
NORFOLK        CLOUDY    38  36  92 E6        29.93F FOG     WCI  33
6HR MIN TEMP:  38; 6HR MAX TEMP:  39;

ALBION         FOG       39  38  94 NE3       29.92F VSB 3/4
BLAIR          CLOUDY    40  39  97 N7        29.89F FOG     WCI  35
FREMONT        CLOUDY    39  39 100 N3        29.92S FOG
TEKAMAH        CLOUDY    40  38  93 NE6       29.92F
6HR MIN TEMP:  40; 6HR MAX TEMP:  42;

WAYNE          CLOUDY    38  38  99 NE3       29.94F
$$

NEZ050>053-065>068-078-088>093-260700-
SOUTHEAST NEBRASKA

CITY           SKY/WX    TMP DP  RH WIND       PRES   REMARKS
LINCOLN        CLOUDY    41  39  93 NW5       29.93S
6HR MIN TEMP:  41; 6HR MAX TEMP:  41; 6HR PCP:  0.01;

OMAHA EPPLEY   CLOUDY    41  37  86 N8        29.91F
6HR MIN TEMP:  41; 6HR MAX TEMP:  43; 6HR PCP: TRACE;

BEATRICE       CLOUDY    41  40  97 N7        29.91S FOG
FALLS CITY     CLOUDY    42  41  96 NW5       29.89S
6HR MIN TEMP:  42; 6HR MAX TEMP:  43;

NEBRASKA CITY  CLOUDY    40  40 100 N3        29.90S
PLATTSMOUTH    CLOUDY    40  38  93 N5        29.90F FOG
$$

NEZ044-045-051>053-067-260700-
OMAHA AREA

CITY           SKY/WX    TMP DP  RH WIND       PRES   REMARKS
OMAHA EPPLEY   CLOUDY    41  37  86 N8        29.91F
6HR MIN TEMP:  41; 6HR MAX TEMP:  43; 6HR PCP: TRACE;

BLAIR          CLOUDY    40  39  97 N7        29.89F FOG     WCI  35
FREMONT        CLOUDY    39  39 100 N3        29.92S FOG
MILLARD        CLOUDY    42  40  91 N5        29.91F
OFFUTT AFB     CLOUDY    41  39  93 N6        29.91S
PLATTSMOUTH    CLOUDY    40  38  93 N5        29.90F FOG
WAHOO          CLOUDY    39  38  96 N6        29.92S FOG
$$




USA.gov is the U.S. government's official web portal to all federal, state and local government web resources and services.